Wetbulb
68.25 66.72 66.34 61.50 56.44 56.57 54.71 55.76 60.01 60.16 59.84 66.57 67.40 66.70 65.95 66.89 65.12 63.17 76.60 76.80 74.30 72.29 75.08 77.08 77.99 78.40 78.09 77.10 76.91 76.81 76.58 77.16 77.59 77.54 77.14 76.45 76.15 75.84 76.91 77.64 77.46 77.09 75.94 75.26 75.14 74.68 73.89 72.99 71.58
65.90 61.05 61.66 59.38 54.63 52.85 53.85 57.91 58.31 62.93 64.89 67.33 67.66 66.73 66.25 65.85 70.19 73.37 74.42 75.11 73.99 72.71 75.05 76.44 77.56 78.07 77.94 77.39 77.01 76.91 77.11 77.36 77.49 77.21 76.66 75.85 75.70 75.80 76.68 77.49 77.58 76.80 76.17 75.59 75.29 74.74 74.03 73.30 72.25
63.13 61.34 58.99 57.16 56.03 53.41 53.07 56.78 58.55 63.27 65.36 65.75 65.83 68.21 67.61 67.67 71.21 73.76 76.48 75.19 73.87 72.88 73.93 77.25 77.69 77.64 77.84 77.67 77.13 77.16 77.31 77.26 77.26 76.96 76.35 75.59 75.54 76.20 77.01 77.54 77.51 76.86 76.14 75.80 75.25 74.81 74.20 73.71 73.15
59.90 59.25 57.99 54.19 54.06 57.11 56.09 57.15 57.74 59.53 64.44 66.16 66.40 66.41 69.62 71.41 72.84 75.63 76.56 74.99 73.96 72.62 73.50 76.76 77.51 77.49 77.59 77.59 77.24 77.31 77.13 77.16 76.88 76.56 75.93 75.67 75.62 76.36 77.09 77.01 77.46 77.21 76.66 76.02 75.50 74.90 74.56 73.82 73.41
60.37 58.92 52.29 51.49 53.67 57.06 58.08 58.20 57.30 57.00 63.30 64.47 65.95 66.04 68.09 71.84 75.05 77.00 75.28 74.55 73.24 72.64 74.77 76.64 77.31 77.18 77.21 77.06 77.14 77.11 76.96 76.76 76.63 76.38 75.70 75.62 75.90 76.38 76.73 76.86 76.79 76.71 76.67 76.42 76.29 75.35 74.72 74.13 73.81
55.86 56.57 50.60 49.94 52.29 55.51 57.55 58.58 57.85 57.12 59.72 64.55 65.19 64.63 68.14 73.81 74.91 75.04 74.65 74.54 73.54 73.18 74.97 75.35 76.88 77.08 76.83 76.83 76.78 76.58 76.51 76.38 76.36 76.00 75.78 76.05 76.08 76.38 76.46 76.38 76.44 76.65 76.94 76.76 76.11 75.87 75.45 74.85 74.35
54.91 54.17 50.51 51.38 51.76 53.39 55.12 58.69 58.68 58.12 57.77 62.82 66.78 63.71 69.60 72.56 75.45 76.60 76.37 75.75 74.28 73.55 73.67 73.46 74.18 76.03 76.93 76.73 76.48 76.40 76.23 76.13 76.15 75.85 75.70 75.70 75.88 76.03 76.08 76.00 76.02 75.96 75.91 76.34 76.38 75.73 75.12 74.55 74.22
56.62 54.96 51.61 51.94 51.06 51.34 56.05 57.02 59.25 60.95 59.25 67.08 67.93 63.07 66.46 72.90 75.74 76.60 76.62 75.50 74.62 73.43 73.29 72.30 72.82 73.23 73.48 74.32 76.18 76.20 76.15 76.05 75.93 75.80 75.73 75.38 75.08 75.12 75.30 75.75 75.45 75.21 75.57 75.90 76.25 75.70 74.62 74.25 73.75
58.57 51.81 49.86 51.16 51.56 53.15 56.59 55.56 58.87 62.20 62.83 62.67 65.68 68.94 71.36 74.78 75.95 75.36 74.96 74.96 74.05 72.79 73.05 72.65 71.89 72.17 72.27 72.52 74.87 75.57 75.19 75.40 75.78 75.25 75.28 74.36 72.07 72.61 74.18 75.24 75.40 74.63 74.58 75.12 75.55 75.75 75.33 74.60 74.03
54.31 50.90 51.16 54.83 55.21 53.96 55.50 55.83 57.12 57.06 60.73 62.65 65.17 71.95 72.33 74.30 74.42 74.14 74.01 72.72 73.12 72.08 71.60 72.07 72.44 72.44 72.00 71.76 74.47 73.35 73.37 73.47 72.87 72.56 73.74 72.90 73.34 74.02 73.70 74.17 74.32 74.02 73.94 74.29 75.00 75.40 75.73 74.97 74.96
54.15 50.91 54.66 54.02 55.59 55.77 55.13 55.48 57.76 56.81 57.57 62.16 63.34 67.84 71.03 72.59 72.72 73.35 73.59 74.01 72.94 72.66 72.30 72.06 73.36 75.57 72.43 72.10 73.69 71.89 72.80 72.85 73.22 74.63 75.22 74.44 73.67 74.47 72.90 73.93 72.47 71.66 72.94 72.53 74.03 74.69 74.75 74.38 73.58
51.89 54.23 54.62 55.31 54.99 54.83 54.12 56.78 55.50 57.39 59.24 64.13 65.87 69.69 70.61 71.51 71.73 72.36 72.23 73.05 72.75 71.94 72.41 72.85 73.92 76.01 75.31 73.62 73.48 72.79 72.65 73.30 73.72 74.59 75.93 76.56 74.33 74.63 73.97 72.48 73.28 72.89 72.40 71.51 72.62 72.53 73.91 73.70 75.08
52.65 53.18 54.01 54.92 54.80 54.98 55.96 54.81 55.42 56.75 60.37 65.04 63.55 65.78 69.06 70.72 71.99 72.82 72.61 71.94 73.18 71.85 72.43 72.98 74.77 76.12 76.41 76.20 74.16 74.22 73.52 73.55 74.63 75.24 76.04 75.88 75.19 74.89 74.45 74.02 73.39 72.93 72.83 72.15 71.57 70.93 71.57 72.48 72.85
54.76 53.46 53.93 54.53 54.29 54.89 53.80 54.44 55.58 56.47 60.66 62.35 61.67 63.28 67.33 69.47 71.43 72.24 71.91 71.81 73.11 73.00 73.14 73.80 74.56 77.07 76.71 77.26 77.97 74.93 75.16 75.51 74.92 74.90 75.67 76.33 75.93 76.50 74.53 74.09 73.71 73.23 72.75 72.46 71.97 71.96 72.18 72.19 71.90
54.93 52.29 53.57 53.98 54.33 53.90 55.31 52.40 53.19 56.85 59.63 58.93 59.66 60.62 63.95 68.50 71.16 71.75 72.26 73.30 74.52 74.36 74.44 74.45 74.88 76.27 77.05 76.65 76.47 76.57 75.16 75.08 74.67 74.76 76.87 76.88 77.10 77.06 76.96 74.18 73.88 73.50 73.89 72.96 73.58 74.44 74.03 73.55 73.39
52.65 53.32 49.77 54.08 54.28 54.12 53.96 49.66 54.37 57.04 57.31 56.52 57.56 58.41 59.89 64.60 68.80 72.24 73.28 74.31 75.51 75.64 75.45 75.52 74.60 75.08 76.40 76.24 76.39 75.27 75.07 75.64 74.33 75.34 75.78 76.34 76.33 76.63 76.84 74.18 74.20 74.11 74.43 73.31 73.08 73.89 72.70 73.46 72.69
52.33 48.41 49.97 51.41 54.82 53.59 52.61 50.57 54.04 57.31 56.66 56.45 57.32 57.93 58.50 59.98 63.67 69.60 72.48 73.04 74.98 76.62 76.21 76.19 76.56 75.32 75.67 77.15 75.99 76.29 78.10 75.61 75.10 75.45 75.61 77.70 76.30 75.91 76.65 74.69 74.30 75.67 73.70 72.86 72.61 72.49 72.77 72.69 73.02
48.78 49.49 50.06 49.89 53.12 52.95 52.04 51.59 54.14 56.45 56.35 56.70 57.31 57.77 58.43 59.29 62.57 65.59 67.41 68.84 72.34 75.65 77.20 78.10 77.60 78.03 78.08 77.22 76.70 75.19 74.92 74.93 75.36 75.23 75.29 77.71 76.48 76.02 76.39 74.91 76.09 75.75 73.68 72.09 72.35 75.57 73.25 71.90 71.83
51.58 50.47 49.66 51.42 53.23 52.39 51.99 52.49 53.50 56.45 56.43 56.15 56.85 57.75 58.46 59.45 63.77 65.04 66.58 67.42 66.83 71.16 75.80 76.40 76.84 79.44 78.04 75.99 75.35 74.86 73.89 74.92 74.48 74.80 77.27 76.79 76.31 76.29 77.49 75.04 75.79 76.08 75.19 74.77 76.99 73.90 73.80 72.02 72.99
51.43 49.68 49.20 51.77 53.53 53.03 52.54 52.23 54.76 56.48 56.69 57.49 58.21 59.28 60.25 61.76 63.58 65.08 66.94 67.89 68.06 67.05 69.01 72.57 75.37 77.78 77.87 76.94 77.57 76.83 75.93 74.85 74.91 74.63 76.58 76.38 76.22 76.78 76.84 76.78 76.15 77.23 74.32 76.38 75.49 75.49 71.53 71.10 71.90
50.85 49.74 49.95 49.56 52.79 53.55 52.29 51.16 53.43 56.27 58.01 58.62 59.26 60.58 60.95 61.44 62.85 64.34 65.19 66.98 68.41 68.92 68.97 68.65 70.28 74.46 78.04 79.13 78.05 78.03 77.06 76.93 74.01 73.74 74.37 76.56 76.30 76.45 77.35 76.42 76.71 77.70 75.98 71.09 75.20 74.43 73.52 69.14 70.54
48.59 52.55 51.31 50.46 50.22 46.98 52.39 44.60 51.97 54.85 55.74 57.42 58.67 59.60 60.36 61.54 62.88 63.54 64.37 64.97 66.09 67.85 69.78 70.52 70.18 70.24 71.20 77.28 77.15 77.96 74.43 72.60 72.97 73.42 73.48 76.15 76.96 76.45 76.36 76.64 76.47 77.51 73.98 75.08 74.34 74.02 73.44 73.13 69.46
50.00 53.03 51.96 51.36 49.97 49.64 49.43 46.56 49.73 54.57 53.46 55.54 57.66 58.74 59.50 60.53 61.57 62.02 62.81 63.81 64.60 65.79 67.36 69.85 72.02 71.59 70.25 70.96 75.99 75.10 75.83 73.43 73.18 73.01 77.38 77.53 78.80 76.78 76.23 76.45 76.54 76.42 74.84 75.92 75.95 75.66 74.80 73.23 71.12
53.78 51.97 51.84 51.59 50.01 44.69 48.70 47.74 48.24 51.35 53.94 55.83 56.94 57.53 58.60 59.49 60.51 61.50 62.86 63.46 63.83 64.77 65.51 66.70 69.22 70.97 72.72 71.61 71.43 74.67 74.70 75.32 74.32 74.73 73.05 74.62 75.11 76.17 77.05 75.12 76.90 77.29 76.28 74.59 73.89 75.51 74.17 74.12 72.12
52.26 50.21 44.02 42.71 42.79 42.48 49.65 47.00 49.11 53.16 55.72 56.25 55.76 56.67 58.08 59.41 59.82 60.38 60.74 61.46 62.81 63.50 64.13 64.88 66.08 67.06 69.90 71.40 72.07 71.92 73.29 74.85 75.25 75.70 73.96 74.86 73.88 74.10 75.83 76.74 76.56 75.30 75.93 74.79 75.36 75.00 74.25 74.24 72.32
50.93 49.76 44.25 38.50 39.73 43.45 48.43 44.78 47.56 56.15 57.93 58.00 57.20 57.16 57.25 57.40 58.53 58.49 59.86 60.77 61.67 62.70 63.69 64.19 64.74 64.88 66.12 67.76 69.52 71.82 72.92 71.61 72.50 74.02 74.54 74.21 73.54 74.61 76.19 76.40 76.88 75.61 74.11 74.04 75.75 73.60 73.10 74.10 72.07
50.75 47.85 51.32 46.56 48.08 43.92 46.04 48.68 52.19 54.69 54.00 54.78 55.17 55.80 55.95 56.42 56.88 57.09 58.43 59.35 60.32 61.47 62.94 63.70 64.08 64.67 65.21 65.70 66.49 68.07 70.24 71.20 71.18 72.39 75.14 73.46 76.35 74.73 76.53 76.57 75.94 75.49 74.63 74.37 75.54 72.98 73.85 73.79 74.10
51.42 52.44 45.45 47.38 38.75 37.66 44.26 46.08 47.45 49.80 50.91 52.88 53.49 54.44 55.18 55.52 55.72 56.59 57.30 58.17 58.64 59.57 60.75 62.39 63.26 63.22 64.32 64.85 65.37 65.96 67.20 68.26 69.91 70.57 71.95 73.39 74.25 73.79 75.57 75.25 75.36 75.46 74.61 74.42 75.31 73.31 74.33 73.72 71.88
47.24 46.56 46.43 46.90 43.66 38.47 38.36 44.21 51.08 52.91 53.67 51.73 53.82 54.60 54.31 54.84 54.48 55.63 56.87 57.94 58.19 58.43 58.51 59.51 60.24 60.65 62.00 63.32 64.49 64.69 65.26 66.23 66.98 67.18 68.78 69.31 70.18 71.87 73.72 73.72 73.18 73.64 74.26 74.04 74.40 73.89 72.82 72.49 73.03
48.68 44.54 42.70 36.68 39.82 40.35 42.74 40.91 51.23 52.60 52.66 53.94 52.42 53.19 53.68 54.23 54.44 55.51 55.92 56.57 57.13 57.20 57.76 57.96 59.10 59.23 59.82 60.82 61.63 62.99 64.69 64.99 65.43 65.70 66.61 67.31 67.53 67.10 68.75 70.98 72.58 72.63 72.96 73.86 73.64 73.74 70.59 71.63 72.03
MSLP
1012.00 1011.31 1010.03 1008.70 1006.97 1003.51 999.93 999.42 999.64 999.68 1000.58 1001.99 1002.73 1002.58 1003.55 1003.84 1004.03 1005.65 1007.38 1007.43 1007.59 1008.93 1010.51 1011.84 1012.69 1012.95 1013.33 1013.44 1013.96 1014.32 1014.73 1015.09 1015.41 1015.57 1015.86 1016.16 1016.35 1016.47 1016.65 1016.80 1016.89 1017.00 1017.17 1017.41 1017.52 1017.67 1017.81 1017.94 1018.12
1010.30 1009.71 1009.07 1007.11 1004.52 1000.65 998.91 999.58 999.21 999.53 1001.02 1002.25 1003.10 1003.81 1003.53 1004.46 1004.93 1006.18 1006.95 1007.06 1007.86 1009.19 1010.66 1011.51 1012.79 1013.12 1013.65 1013.79 1014.10 1014.52 1014.92 1015.22 1015.57 1015.83 1016.06 1016.36 1016.53 1016.69 1016.81 1016.98 1017.12 1017.29 1017.57 1017.71 1017.83 1017.91 1018.02 1018.18 1018.29
1011.06 1009.47 1007.67 1004.84 1002.56 999.69 999.69 999.77 999.89 1000.52 1001.60 1002.01 1002.62 1004.05 1004.68 1005.30 1005.88 1005.89 1006.13 1007.30 1008.08 1009.34 1010.52 1011.73 1012.88 1013.31 1013.81 1014.11 1014.45 1014.77 1015.13 1015.38 1015.68 1015.89 1016.19 1016.45 1016.66 1016.85 1017.05 1017.20 1017.26 1017.41 1017.69 1017.91 1018.06 1018.14 1018.26 1018.37 1018.44
1009.49 1008.25 1007.02 1004.32 1001.40 999.65 999.76 1000.14 1000.53 1000.67 1001.52 1002.26 1002.53 1003.42 1005.49 1006.36 1005.98 1006.00 1007.09 1007.52 1008.49 1009.15 1010.12 1012.51 1013.10 1013.57 1013.94 1014.42 1014.72 1015.02 1015.28 1015.47 1015.82 1016.12 1016.40 1016.59 1016.91 1017.05 1017.13 1017.41 1017.63 1017.57 1017.71 1017.94 1018.18 1018.34 1018.50 1018.57 1018.62
1009.10 1006.88 1004.89 1002.98 1001.36 999.86 1000.11 1000.75 1001.13 1000.79 1000.62 1001.50 1002.77 1003.58 1005.09 1006.65 1006.83 1006.88 1007.21 1007.63 1008.23 1008.89 1010.00 1012.30 1013.35 1013.76 1014.15 1014.65 1014.90 1015.21 1015.49 1015.70 1015.91 1016.18 1016.49 1016.75 1016.99 1017.20 1017.40 1017.57 1017.67 1017.84 1017.96 1018.12 1018.25 1018.43 1018.57 1018.72 1018.84
1007.52 1005.95 1003.94 1001.85 1000.74 1000.22 1000.75 1001.17 1001.31 1001.12 1000.85 1001.43 1002.59 1003.33 1004.89 1006.52 1006.79 1007.15 1007.33 1007.68 1008.00 1008.81 1010.19 1012.11 1013.43 1013.78 1014.32 1014.57 1015.05 1015.36 1015.62 1015.88 1016.13 1016.30 1016.59 1016.86 1017.14 1017.35 1017.49 1017.64 1017.81 1017.89 1018.02 1018.20 1018.42 1018.58 1018.74 1018.79 1018.90
1006.93 1004.82 1003.28 1001.48 1000.14 1000.15 1000.85 1001.58 1001.41 1001.02 1001.00 1001.11 1002.03 1002.50 1004.68 1005.94 1006.58 1007.10 1007.46 1007.68 1008.03 1009.00 1010.14 1011.86 1012.90 1013.81 1014.48 1014.76 1015.07 1015.43 1015.66 1015.98 1016.29 1016.51 1016.75 1017.04 1017.21 1017.50 1017.66 1017.76 1017.90 1018.09 1018.10 1018.26 1018.45 1018.59 1018.69 1018.85 1018.87
1006.62 1005.13 1003.16 1001.61 1000.53 1000.28 1001.10 1001.99 1001.50 1001.67 1001.15 1001.69 1002.54 1001.97 1003.65 1005.53 1006.82 1006.99 1007.16 1007.55 1008.08 1009.02 1009.93 1011.30 1012.24 1013.14 1014.01 1014.57 1015.23 1015.61 1015.85 1016.12 1016.34 1016.69 1016.92 1017.20 1017.38 1017.51 1017.69 1017.89 1017.93 1018.22 1018.25 1018.27 1018.39 1018.67 1018.79 1018.82 1018.85
1006.80 1005.32 1002.89 1001.34 1000.76 1000.47 1001.47 1001.81 1001.68 1002.00 1001.86 1002.40 1002.66 1002.93 1004.38 1005.65 1006.67 1006.73 1006.92 1007.35 1008.02 1008.73 1009.51 1010.66 1011.54 1012.43 1013.04 1013.65 1014.95 1015.75 1016.10 1016.24 1016.43 1016.69 1016.97 1017.17 1016.56 1017.11 1017.46 1017.37 1017.72 1018.01 1018.31 1018.34 1018.44 1018.62 1018.77 1018.85 1018.85
1006.12 1004.42 1002.38 1001.27 1000.77 1001.13 1001.71 1002.16 1001.65 1002.20 1002.01 1002.12 1002.88 1004.06 1004.97 1005.73 1006.27 1006.20 1006.53 1007.05 1007.75 1008.65 1009.31 1010.02 1010.79 1011.64 1012.19 1012.65 1014.07 1014.96 1015.38 1015.67 1015.76 1015.89 1016.40 1016.16 1015.57 1015.96 1016.01 1016.87 1017.69 1017.97 1018.19 1018.26 1018.37 1018.56 1018.62 1018.73 1017.67
1005.43 1004.21 1002.53 1002.49 1002.69 1002.76 1002.64 1002.39 1002.18 1001.97 1001.03 1001.32 1002.12 1003.01 1004.68 1005.56 1005.92 1005.68 1005.96 1006.49 1007.25 1008.23 1009.04 1009.72 1010.67 1011.28 1011.62 1011.83 1013.15 1013.87 1014.29 1014.75 1015.06 1015.19 1015.54 1015.63 1015.07 1015.55 1015.94 1016.24 1016.96 1017.36 1017.80 1017.47 1017.88 1018.09 1017.86 1017.01 1016.42
1005.06 1004.17 1003.62 1003.55 1003.33 1003.79 1003.21 1002.58 1002.25 1001.87 1001.08 1000.90 1001.57 1002.60 1004.22 1005.15 1005.42 1005.43 1005.56 1006.05 1006.76 1007.74 1008.57 1009.44 1010.58 1011.48 1011.78 1011.65 1012.31 1012.99 1013.30 1013.82 1014.15 1014.50 1014.99 1015.10 1015.14 1015.18 1015.30 1015.21 1015.22 1016.07 1016.19 1016.33 1016.28 1016.08 1016.22 1015.92 1015.75
1004.92 1004.17 1004.06 1004.09 1004.02 1003.81 1003.43 1003.00 1002.71 1001.78 1001.48 1002.23 1002.88 1003.40 1004.04 1004.78 1005.15 1005.31 1005.24 1005.70 1006.55 1007.61 1008.64 1009.41 1010.39 1011.34 1011.80 1011.77 1011.88 1012.29 1012.68 1012.99 1013.35 1013.82 1014.50 1014.66 1014.80 1014.80 1014.94 1014.83 1014.88 1014.84 1015.14 1015.31 1015.69 1015.84 1015.64 1015.90 1016.21
1004.32 1004.44 1003.97 1003.91 1003.61 1003.53 1003.39 1002.99 1002.51 1002.37 1001.82 1002.60 1003.17 1003.17 1003.82 1004.44 1004.97 1005.34 1005.45 1005.75 1006.55 1007.41 1008.41 1009.22 1009.98 1011.19 1011.82 1012.08 1012.01 1012.27 1012.38 1012.60 1013.02 1013.11 1013.57 1014.55 1014.45 1014.41 1014.57 1014.85 1015.07 1014.96 1015.06 1015.07 1015.23 1015.37 1015.67 1015.99 1015.80
1004.89 1004.71 1004.18 1003.73 1003.49 1003.13 1003.10 1002.69 1001.79 1002.36 1001.79 1002.43 1003.00 1003.24 1003.14 1004.17 1004.91 1005.37 1005.99 1006.52 1006.99 1007.66 1008.44 1009.37 1010.18 1011.03 1011.85 1012.18 1012.42 1012.36 1012.22 1012.62 1012.54 1012.81 1013.39 1014.01 1014.48 1014.35 1014.74 1014.51 1014.75 1014.72 1014.94 1015.21 1015.16 1015.26 1015.33 1015.75 1015.37
1004.99 1004.43 1003.24 1002.19 1002.76 1002.88 1002.97 1001.77 1001.78 1002.05 1001.76 1002.44 1002.74 1003.03 1003.31 1003.65 1004.58 1005.22 1006.03 1006.97 1007.43 1007.97 1008.62 1009.38 1009.88 1010.51 1011.61 1011.90 1012.22 1012.18 1012.16 1012.58 1012.59 1012.57 1012.87 1013.68 1014.09 1014.39 1014.72 1014.40 1014.32 1014.47 1014.82 1014.87 1015.03 1015.07 1015.16 1014.98 1014.77
1004.13 1003.27 1002.31 1001.50 1001.70 1002.34 1002.64 1001.79 1001.13 1001.05 1001.81 1002.21 1002.77 1002.89 1003.26 1003.71 1004.20 1005.22 1005.74 1006.80 1007.61 1008.00 1008.58 1009.43 1009.89 1010.18 1010.93 1011.74 1011.87 1011.97 1011.77 1012.08 1011.97 1012.00 1012.35 1013.15 1013.76 1013.96 1014.13 1014.00 1013.83 1014.42 1014.57 1014.61 1014.73 1014.75 1014.93 1014.89 1014.90
1002.38 1001.93 1002.04 1001.26 1001.60 1002.52 1001.83 1001.94 1001.04 1001.05 1001.92 1002.66 1003.19 1003.17 1003.48 1003.71 1005.02 1006.75 1007.47 1007.90 1007.86 1008.02 1008.54 1009.10 1009.81 1010.22 1010.49 1011.05 1011.73 1011.49 1011.52 1011.59 1011.74 1011.56 1011.87 1012.43 1013.24 1013.55 1013.82 1013.64 1013.68 1014.18 1014.45 1014.35 1014.44 1014.64 1014.87 1014.91 1014.45
1003.33 1003.21 1002.19 1001.51 1001.89 1002.05 1002.06 1001.44 1001.51 1001.62 1002.80 1002.94 1003.45 1003.94 1004.04 1004.75 1006.30 1007.56 1008.25 1008.66 1008.65 1008.63 1008.67 1009.13 1009.51 1009.86 1010.44 1010.53 1010.64 1010.96 1010.78 1010.92 1011.11 1011.23 1011.43 1011.96 1012.66 1012.92 1013.32 1013.40 1013.51 1014.01 1014.14 1014.05 1014.06 1014.39 1014.94 1015.05 1014.76
1004.27 1003.75 1002.90 1002.46 1002.14 1002.22 1002.05 1001.52 1001.30 1002.53 1003.09 1003.49 1004.22 1004.87 1005.40 1006.28 1007.34 1008.18 1008.62 1008.90 1009.04 1009.21 1009.29 1009.41 1009.58 1009.71 1010.10 1010.16 1010.20 1009.95 1010.11 1010.08 1010.30 1010.50 1010.67 1011.43 1012.06 1012.38 1012.75 1013.18 1012.92 1013.50 1013.67 1013.95 1014.18 1014.47 1014.51 1014.48 1014.58
1004.15 1003.70 1003.02 1002.63 1001.97 1002.24 1002.49 1001.41 1001.67 1003.15 1004.21 1004.89 1005.22 1005.79 1006.33 1006.82 1007.79 1008.47 1008.84 1008.97 1009.06 1009.39 1009.53 1009.66 1009.88 1009.71 1009.79 1010.04 1009.84 1009.97 1010.06 1009.90 1009.70 1009.75 1010.15 1010.90 1011.64 1012.07 1012.33 1012.63 1012.77 1012.82 1013.41 1013.20 1013.96 1014.54 1014.94 1014.40 1014.34
1003.58 1003.49 1003.44 1003.09 1002.57 1001.84 1002.30 1000.79 1000.88 1002.71 1004.03 1004.82 1005.52 1006.05 1006.81 1007.57 1008.07 1008.51 1008.93 1009.23 1009.20 1009.44 1009.76 1010.03 1010.15 1010.10 1010.05 1009.80 1009.77 1009.46 1009.22 1009.16 1008.99 1009.20 1009.50 1010.05 1010.99 1011.52 1011.93 1012.22 1012.46 1012.74 1012.88 1013.14 1013.45 1014.04 1014.50 1014.68 1014.51
1003.58 1003.64 1003.20 1003.17 1002.92 1002.46 1001.23 1001.13 1000.43 1001.53 1003.14 1004.51 1005.37 1006.19 1006.94 1007.58 1007.94 1008.36 1008.88 1009.44 1009.57 1009.77 1010.09 1010.30 1010.25 1010.20 1010.15 1010.13 1009.83 1009.53 1009.37 1008.87 1008.71 1008.76 1008.98 1009.52 1010.50 1011.21 1011.44 1011.87 1012.21 1012.53 1012.85 1012.69 1013.19 1013.39 1014.05 1013.94 1013.92
1004.04 1003.75 1003.58 1003.61 1003.02 1001.76 1001.31 1000.51 999.80 1000.22 1002.05 1003.72 1005.82 1006.66 1006.94 1007.35 1008.13 1008.67 1009.11 1009.55 1009.96 1010.15 1010.24 1010.66 1010.75 1010.70 1010.24 1010.06 1009.94 1009.77 1009.73 1009.54 1008.91 1008.41 1008.44 1008.68 1009.47 1010.64 1011.11 1011.20 1011.67 1012.07 1012.34 1012.67 1012.84 1013.31 1013.78 1013.94 1013.82
1004.21 1003.88 1003.48 1003.24 1002.51 1001.25 1001.34 1000.72 999.78 999.93 1000.96 1003.32 1005.79 1006.93 1007.28 1007.58 1008.32 1008.92 1009.40 1009.75 1010.20 1010.46 1010.71 1010.72 1011.06 1011.00 1010.83 1010.44 1010.16 1009.97 1009.81 1009.65 1009.64 1009.39 1008.67 1007.89 1007.96 1008.88 1010.17 1010.86 1011.10 1011.44 1011.93 1012.19 1012.51 1013.04 1013.47 1013.63 1013.54
1003.58 1003.94 1003.57 1002.72 1002.13 1001.49 1001.72 1001.05 1001.95 1001.68 1002.60 1004.29 1005.89 1007.13 1007.69 1007.98 1008.81 1009.50 1010.23 1010.34 1010.50 1010.83 1011.27 1011.31 1011.39 1011.40 1011.38 1011.19 1010.97 1010.57 1010.28 1009.60 1009.19 1009.20 1009.02 1008.18 1007.62 1007.16 1008.16 1009.83 1010.51 1010.94 1011.30 1011.76 1012.06 1012.48 1012.87 1012.96 1013.27
1005.67 1004.15 1004.91 1005.11 1003.93 1003.05 1002.30 1003.89 1004.67 1005.04 1005.43 1005.99 1006.58 1007.31 1008.07 1008.63 1009.33 1009.94 1010.35 1010.86 1010.92 1011.20 1011.48 1011.69 1011.75 1011.72 1011.73 1011.59 1011.44 1011.24 1010.85 1010.69 1010.35 1009.79 1009.55 1008.87 1007.64 1005.05 1007.76 1008.16 1009.65 1010.34 1010.66 1011.12 1011.38 1011.47 1012.03 1012.22 1012.79
1007.51 1007.11 1006.82 1006.33 1006.70 1005.39 1003.59 1003.01 1003.19 1004.56 1005.53 1006.26 1006.95 1007.59 1008.54 1009.14 1009.44 1010.17 1010.60 1011.21 1011.23 1011.45 1011.36 1011.82 1012.08 1011.96 1011.84 1012.00 1011.96 1011.84 1011.52 1011.21 1011.04 1010.82 1010.13 1009.92 1009.33 1008.88 1008.02 1007.57 1008.59 1009.47 1009.97 1010.39 1010.80 1010.80 1011.25 1011.76 1011.99
1009.74 1009.64 1011.17 1010.90 1010.33 1009.20 1006.99 1005.09 1005.62 1004.65 1005.53 1006.52 1006.95 1007.75 1008.92 1009.52 1009.54 1010.11 1010.93 1011.54 1011.80 1011.91 1011.90 1012.17 1012.34 1012.22 1012.11 1012.22 1011.98 1011.94 1012.04 1011.75 1011.61 1011.47 1011.08 1010.91 1010.58 1009.77 1008.67 1007.75 1008.40 1009.10 1009.32 1009.63 1010.10 1010.04 1010.17 1010.91 1011.38
1011.45 1012.27 1013.89 1014.57 1013.13 1012.97 1011.08 1009.29 1009.25 1008.60 1007.36 1006.95 1007.98 1009.07 1009.64 1010.16 1010.16 1010.65 1011.20 1011.75 1012.19 1012.44 1012.56 1012.63 1012.71 1012.47 1012.57 1012.67 1012.41 1012.11 1011.91 1011.82 1011.75 1011.64 1011.30 1010.93 1010.68 1010.22 1010.06 1009.20 1007.88 1008.42 1008.73 1008.78 1009.09 1009.54 1009.36 1009.93 1010.59
Wind_Speed
12 13 10 8 9 10 17 7 6 10 9 11 4 11 13 6 14 6 8 10 17 18 18 16 12 14 14 18 17 17 16 14 13 13 13 11 11 11 12 11 13 14 15 14 14 14 14 14 14
13 8 8 9 11 16 7 6 9 13 15 6 7 2 4 12 9 11 11 14 18 19 17 16 13 14 14 16 17 16 16 15 13 13 12 12 11 11 12 11 12 13 13 13 13 13 13 13 12
13 9 11 10 15 14 7 5 7 8 6 3 5 1 5 7 4 7 17 17 18 17 17 17 13 14 14 15 16 16 15 15 14 14 13 12 11 11 10 10 11 12 12 12 11 11 11 11 11
8 7 8 11 19 15 8 8 5 3 7 1 3 12 8 5 3 4 16 18 17 18 17 18 14 13 14 15 15 15 15 15 14 13 12 12 11 10 10 9 7 10 11 11 10 10 9 9 9
9 9 12 14 18 11 3 3 3 6 3 7 2 11 6 5 3 14 17 16 17 17 18 17 14 13 14 15 15 14 14 14 14 13 12 11 11 10 9 8 8 8 9 9 9 9 8 8 7
9 8 13 14 16 5 1 2 7 8 9 6 8 3 10 11 13 13 13 15 15 16 18 17 14 14 13 15 13 13 13 12 12 12 12 11 11 10 10 9 7 7 8 9 8 8 7 7 6
15 12 15 20 15 9 6 2 10 10 11 7 3 6 11 12 13 14 14 14 14 15 17 16 16 13 11 12 12 12 12 12 11 11 11 10 10 9 9 9 8 6 4 6 8 8 8 6 6
13 14 20 17 14 6 8 10 4 8 10 10 3 5 15 15 14 13 13 14 15 15 17 16 16 16 14 13 11 11 11 11 11 11 10 10 9 9 9 7 8 7 6 5 8 8 7 7 7
9 13 15 17 17 7 6 9 7 5 9 1 9 9 10 16 16 14 12 13 13 13 16 16 16 16 15 15 12 10 10 11 10 10 10 10 9 10 11 6 13 9 7 6 6 8 8 8 8
13 13 20 11 7 4 1 6 4 6 14 9 8 11 8 13 14 15 15 14 16 14 15 15 15 16 15 12 14 12 11 10 11 11 12 10 9 9 6 12 11 9 8 7 7 8 9 10 9
14 17 12 2 6 7 10 8 7 12 16 14 13 17 12 10 13 14 14 15 16 17 14 15 12 12 14 12 11 8 8 8 8 11 11 10 7 7 7 8 7 7 10 8 10 9 9 13 8
16 14 14 14 4 10 16 14 5 14 15 3 9 14 12 11 13 13 12 14 15 16 15 14 14 9 11 9 9 10 9 10 9 10 11 7 5 6 6 6 9 8 8 8 9 8 10 10 5
14 18 10 14 10 14 14 12 15 11 18 6 5 3 10 10 12 12 12 12 13 14 13 14 16 13 11 9 9 9 10 9 10 10 11 9 9 7 7 5 5 5 6 7 6 7 4 5 8
7 16 10 14 16 16 15 18 17 11 15 7 6 11 10 9 12 10 7 8 11 13 16 16 15 13 13 10 9 9 7 6 7 8 9 12 8 6 7 6 6 6 5 5 6 6 5 7 8
10 12 14 16 16 17 14 19 20 15 13 13 13 10 9 13 12 12 8 6 8 9 10 11 12 14 13 13 11 8 8 10 9 9 9 11 10 7 8 7 6 6 6 7 5 6 6 7 7
14 16 17 18 18 17 14 18 21 16 15 12 14 12 10 9 14 13 9 6 7 8 11 12 12 14 13 11 10 9 9 3 6 9 9 12 12 10 9 8 7 7 6 7 8 7 5 6 7
17 14 19 17 12 14 16 19 18 22 18 11 14 13 11 11 14 2 3 8 8 10 12 11 12 12 14 12 10 11 10 10 9 9 9 12 12 13 10 9 8 6 7 7 7 8 4 4 5
15 17 15 16 11 15 17 19 18 9 7 11 16 15 12 9 10 7 6 6 8 10 9 10 11 12 11 10 10 9 10 10 10 9 10 11 11 13 11 9 7 7 8 8 9 4 4 5 6
14 16 15 10 15 11 18 18 20 8 9 11 7 8 9 5 8 3 4 2 2 6 7 10 12 10 10 10 11 10 11 10 10 10 11 11 12 13 10 10 9 8 9 8 6 6 8 9 6
14 17 17 16 13 11 16 18 15 7 9 5 5 6 7 9 8 6 6 5 4 1 4 7 10 11 11 10 9 9 9 10 11 10 11 12 14 12 11 10 9 10 9 8 8 7 9 7 8
17 18 17 17 13 13 16 21 12 10 7 6 5 8 6 6 10 8 10 9 8 8 5 1 6 9 11 12 8 7 8 7 9 11 10 11 13 13 12 12 10 8 8 8 8 8 10 9 4
18 19 16 18 14 14 21 17 22 20 18 15 13 12 11 11 10 11 11 11 12 12 10 9 6 5 9 11 11 12 11 11 11 10 11 11 14 13 13 12 11 8 9 8 7 8 9 10 8
17 18 17 14 17 18 23 18 16 24 19 16 13 11 10 8 9 10 11 11 12 12 12 12 11 8 4 8 11 10 12 12 11 10 9 10 10 13 14 13 11 10 9 8 7 7 9 7 10
13 19 20 15 16 18 21 21 19 20 23 21 13 10 10 10 10 10 9 10 11 12 12 13 14 14 11 6 7 10 13 12 12 10 11 12 11 11 13 14 11 10 9 8 8 8 9 10 8
13 17 12 17 16 19 21 22 18 1 24 22 16 12 9 9 9 9 9 10 10 11 12 12 14 14 14 14 11 6 11 11 13 13 12 12 11 11 12 13 12 11 10 9 9 8 9 10 9
20 19 16 23 17 19 7 15 5 14 17 19 15 12 10 7 9 8 9 8 9 10 11 12 12 13 14 14 14 12 11 9 9 13 14 10 12 11 16 15 12 12 13 11 10 10 10 9 8
22 20 18 26 27 21 13 15 7 8 12 13 15 13 9 8 7 5 8 8 8 8 9 10 10 10 12 13 12 12 11 11 10 12 9 12 16 7 11 18 14 13 13 13 12 11 12 10 9
15 20 14 13 20 26 23 19 14 25 20 17 14 12 8 5 4 6 7 8 8 8 8 10 10 10 9 9 10 11 12 12 12 12 12 11 12 14 8 14 15 14 14 14 14 13 13 11 11
7 9 11 12 4 7 14 9 16 8 14 13 12 9 6 1 4 6 7 7 9 10 10 9 9 10 9 10 9 6 9 11 11 10 11 11 10 13 16 11 14 15 15 14 14 13 14 15 12
5 6 5 5 9 10 8 2 16 10 3 8 5 6 3 3 6 8 6 6 7 8 9 10 9 9 10 10 10 11 10 9 9 10 11 11 12 9 13 17 12 17 16 15 16 17 15 17 16
Wind_Direction
245 223 239 261 247 231 248 128 5 116 141 69 18 14 27 357 12 46 127 170 149 135 138 142 136 140 144 138 137 138 140 141 135 129 124 121 117 116 116 117 119 118 119 116 111 108 103 96 92
273 252 234 273 255 241 138 98 188 67 70 95 89 333 54 70 29 105 147 153 141 133 143 142 140 139 145 138 138 140 141 138 132 127 127 128 125 123 125 124 125 125 123 120 118 116 110 106 102
259 256 269 234 246 273 77 135 86 103 123 160 130 263 34 61 27 139 118 146 135 142 154 131 140 139 143 142 142 141 140 138 137 136 137 135 130 128 127 131 134 133 133 131 129 123 118 114 110
223 207 246 256 260 269 65 93 23 179 132 131 357 96 116 2 111 113 141 148 139 146 147 132 139 144 145 147 144 145 146 141 140 139 139 134 133 134 131 134 138 142 144 144 142 135 131 124 114
243 263 254 236 262 283 94 30 301 284 96 143 190 102 82 115 108 129 150 151 161 149 130 145 140 142 147 151 148 148 148 146 144 142 140 138 140 140 136 141 149 151 152 154 155 149 147 141 136
231 259 252 246 232 239 205 334 274 272 274 107 162 249 83 135 150 145 155 157 160 145 132 141 143 143 153 151 153 153 151 147 147 145 146 147 147 146 145 149 153 162 174 161 151 156 154 155 156
251 241 256 268 281 189 220 4 254 260 235 161 37 234 105 151 143 153 163 164 150 149 144 154 160 150 147 149 153 157 153 151 149 150 151 151 150 149 151 153 155 162 153 163 162 165 162 163 162
248 268 273 259 273 222 110 265 282 260 250 66 50 299 141 140 151 165 174 168 157 159 149 160 163 165 171 165 159 161 159 154 152 156 152 149 148 155 157 157 160 166 174 179 169 177 180 174 176
242 266 252 249 247 219 139 249 149 329 288 161 171 38 80 133 161 177 165 167 166 169 152 162 167 167 181 167 165 165 169 159 155 159 155 163 188 177 160 126 143 164 183 185 197 190 190 192 198
235 232 253 298 236 283 77 267 261 233 215 175 159 97 125 151 175 177 175 174 172 175 162 166 176 166 184 166 155 188 181 189 191 186 175 211 212 173 195 143 153 170 187 188 196 225 200 206 218
224 254 294 324 313 304 292 284 236 258 231 210 193 155 152 168 184 191 185 175 180 174 173 171 183 159 191 180 157 186 187 198 196 195 178 221 194 171 207 156 177 195 194 205 190 193 219 220 212
243 243 280 276 217 242 252 257 297 250 257 273 156 124 147 177 181 198 192 172 177 173 175 179 171 164 212 183 178 188 203 193 194 199 191 206 227 185 205 223 185 193 174 229 199 205 216 243 204
235 266 234 248 251 247 250 260 251 234 254 81 53 176 161 177 186 204 191 170 175 173 172 192 171 181 203 217 183 207 208 191 200 188 190 215 209 205 210 232 259 217 216 197 239 239 254 241 256
237 243 255 241 238 238 239 248 238 248 248 151 215 203 179 186 194 198 200 190 178 174 173 192 180 177 201 213 240 202 211 219 223 204 197 210 216 200 218 212 219 246 243 241 230 223 229 221 259
270 258 241 245 242 244 230 245 241 246 209 212 205 230 217 172 190 193 181 215 185 181 183 191 190 178 203 203 213 232 215 220 203 222 196 193 217 211 234 215 216 224 228 246 235 270 197 262 246
246 244 253 227 214 227 232 243 232 218 235 212 235 220 215 207 193 198 189 186 199 203 187 190 197 185 192 213 205 225 227 251 245 217 205 205 205 232 199 235 215 229 223 214 239 222 234 245 234
225 254 243 258 182 221 207 247 250 203 220 216 238 228 230 214 209 179 115 199 204 196 188 203 209 211 189 202 215 217 225 216 231 218 211 185 212 206 229 222 221 216 230 233 229 245 249 238 274
250 234 230 252 173 226 226 237 253 160 215 223 245 250 250 227 86 40 22 343 313 197 209 201 206 217 206 192 210 227 222 223 224 221 219 186 206 212 200 233 227 199 229 227 226 234 269 266 277
302 288 287 268 252 199 239 227 244 149 228 228 234 238 239 104 79 88 53 350 288 259 229 215 219 209 210 209 206 212 221 219 219 227 212 208 209 207 207 225 193 219 240 234 252 215 238 268 258
261 262 261 258 259 219 248 247 215 154 215 184 186 167 151 151 132 106 88 84 79 111 248 239 237 217 211 220 222 231 216 225 220 220 208 204 209 214 204 223 219 191 233 218 234 244 265 212 237
249 258 261 259 252 223 244 246 166 166 171 162 138 120 113 118 118 98 78 68 74 70 50 322 276 267 228 231 226 224 252 240 235 219 206 197 212 212 209 202 236 195 223 237 201 221 234 239 224
246 247 246 270 248 243 210 246 189 186 191 182 159 154 138 137 113 96 80 59 60 50 52 43 17 302 262 250 238 248 229 230 222 232 218 197 200 213 208 217 213 224 204 239 195 207 229 236 250
259 277 272 237 250 252 247 219 271 178 191 181 161 141 132 116 92 83 82 67 49 55 47 35 33 31 348 275 277 246 240 253 241 229 233 196 176 212 215 210 211 213 221 218 233 208 202 221 247
273 257 250 255 255 245 240 253 219 197 188 172 156 155 140 122 106 86 78 70 51 40 43 51 34 24 15 4 295 265 266 287 280 244 238 187 197 195 216 207 208 209 216 233 201 229 207 229 249
226 246 239 234 226 241 245 245 247 259 186 141 157 156 141 127 99 86 59 61 56 46 33 32 29 30 19 11 2 300 274 262 266 279 259 247 198 187 201 212 201 202 208 212 208 193 214 217 240
250 225 243 252 252 246 320 263 331 82 134 157 151 150 140 114 97 77 69 50 48 43 37 31 29 23 18 15 8 1 347 307 277 233 266 276 239 206 181 189 201 210 200 210 202 190 211 199 220
272 264 235 265 266 271 253 222 147 167 154 160 165 157 140 121 108 80 80 39 40 29 46 29 18 23 20 9 7 6 3 358 343 329 316 279 274 313 200 171 195 203 205 200 197 212 193 199 199
336 317 298 268 262 254 251 242 206 181 181 175 166 159 132 135 107 76 40 45 16 19 25 30 9 8 18 8 7 5 359 360 357 348 351 307 290 299 279 185 185 202 204 199 203 202 189 208 194
319 331 349 305 187 255 287 277 25 143 174 166 169 129 131 99 54 56 40 33 10 9 14 14 3 351 4 3 351 360 351 351 356 355 351 344 331 322 288 211 198 211 204 201 201 213 198 194 209
236 235 248 290 342 317 267 313 350 148 303 127 121 138 102 24 17 18 16 10 14 2 1 352 353 342 356 351 341 340 346 339 340 339 343 347 352 341 338 298 250 212 216 203 203 210 207 193 201